Delta, CO

3:38 AM MDT on June 27, 2017 (GMT -0600)
Delta

Weather History for KAJZ - November, 2013

Change the Weather History Date:

Friday, November 1, 2013

  Actual Average (KMTJ) Record (KMTJ)
Temperature  
Mean Temperature 44 °F -  
Max Temperature 55 °F 53 °F 75 °F (2014)
Min Temperature 32 °F 28 °F 21 °F (2004)
Degree Days  
Heating Degree Days 22    
Moisture  
Dew Point 32 °F    
Average Humidity 71    
Maximum Humidity 95    
Minimum Humidity 35    
Precipitation  
Precipitation 0.00 in - - ()
Sea Level Pressure  
Sea Level Pressure 30.27 in    
Wind  
Wind Speed 2 mph (East)    
Max Wind Speed 9 mph    
Max Gust Speed -    
Visibility 10 miles    
Events      
Averages and records for this station are not official NWS values.
T = Trace of Precipitation, MM = Missing Value Source: NWS Daily Summary

Daily Weather History Graph

Daily Weather History Graph

Search for Another Location

Airport or City:

Trip Planner

Search our weather history database for the weather conditions in past years. The results will help you decide how hot, cold, wet, or windy it might be!

Date:

Astronomy

Nov. 01, 2013 Rise Set
Actual Time 7:39 AM MDT 6:11 PM MDT
Civil Twilight 7:11 AM MDT 6:39 PM MDT
Nautical Twilight 6:40 AM MDT 7:10 PM MDT
Astronomical Twilight 6:09 AM MDT 7:41 PM MDT
Moon 5:36 AM MDT (11/1) 5:05 PM MDT (11/1)
Length of Visible Light 11h 27m
Length of Day
10h 31m
Waning Crescent, 4% of the Moon is Illuminated
Nov 1
Waning Crescent
Nov 3
New
Nov 9
First Quarter
Nov 17
Full
Nov 25
Last Quarter

Hourly Weather History & Observations

Time (MDT) Temp. Windchill Dew Point Humidity Pressure Visibility Wind Dir Wind Speed Gust Speed Precip Events Conditions
12:15 AM 37.4 °F 33.8 °F 32.0 °F 81% 30.16 in 10.0 mi NNE 4.6 mph - N/A   Scattered Clouds
12:55 AM 38.8 °F - 32.2 °F 77% 30.16 in 10.0 mi Calm Calm - N/A   Overcast
1:15 AM 38.5 °F - 33.4 °F 82% 30.17 in 10.0 mi Calm Calm - N/A   Overcast
1:35 AM 38.3 °F - 33.3 °F 82% 30.17 in 10.0 mi Calm Calm - N/A   Overcast
1:55 AM 38.3 °F - 33.8 °F 84% 30.17 in 10.0 mi Calm Calm - N/A   Overcast
2:15 AM 37.9 °F - 33.8 °F 85% 30.18 in 10.0 mi Calm Calm - N/A   Overcast
2:35 AM 37.4 °F - 33.8 °F 87% 30.18 in 10.0 mi Calm Calm - N/A   Overcast
2:55 AM 36.9 °F - 33.1 °F 86% 30.17 in 10.0 mi Calm Calm - N/A   Mostly Cloudy
3:15 AM 36.0 °F - 32.4 °F 87% 30.18 in 10.0 mi Calm Calm - N/A   Scattered Clouds
3:35 AM 36.0 °F - 32.2 °F 86% 30.18 in 10.0 mi Calm Calm - N/A   Mostly Cloudy
3:55 AM 36.7 °F - 32.0 °F 83% 30.18 in 10.0 mi Calm Calm - N/A   Mostly Cloudy
4:15 AM 34.7 °F - 31.6 °F 89% 30.18 in 10.0 mi Calm Calm - N/A   Mostly Cloudy
4:35 AM 34.2 °F - 31.5 °F 90% 30.19 in 10.0 mi Calm Calm - N/A   Scattered Clouds
4:55 AM 34.5 °F - 31.5 °F 89% 30.20 in 10.0 mi Calm Calm - N/A   Scattered Clouds
5:15 AM 34.9 °F - 32.0 °F 89% 30.20 in 10.0 mi Calm Calm - N/A   Scattered Clouds
5:35 AM 34.2 °F - 31.6 °F 90% 30.21 in 10.0 mi Calm Calm - N/A   Scattered Clouds
5:55 AM 34.0 °F - 31.6 °F 91% 30.22 in 10.0 mi Calm Calm - N/A   Scattered Clouds
6:15 AM 33.6 °F - 31.5 °F 92% 30.23 in 10.0 mi Calm Calm - N/A   Clear
6:35 AM 33.3 °F - 31.3 °F 92% 30.23 in 10.0 mi Calm Calm - N/A   Clear
6:55 AM 32.4 °F - 30.7 °F 94% 30.23 in 10.0 mi Calm Calm - N/A   Clear
7:15 AM 32.5 °F - 30.9 °F 94% 30.24 in 10.0 mi Calm Calm - N/A   Clear
7:35 AM 33.1 °F - 31.5 °F 94% 30.25 in 10.0 mi Calm Calm - N/A   Clear
7:55 AM 32.2 °F - 30.9 °F 95% 30.26 in 10.0 mi Calm Calm - N/A   Clear
8:15 AM 32.0 °F - 30.6 °F 94% 30.27 in 10.0 mi Calm Calm - N/A   Clear
8:35 AM 34.0 °F - 32.0 °F 92% 30.28 in 7.0 mi Calm Calm - N/A   Clear
8:55 AM 36.0 °F - 32.9 °F 89% 30.29 in 10.0 mi Calm Calm - N/A   Clear
9:15 AM 38.1 °F - 32.9 °F 81% 30.30 in 10.0 mi Calm Calm - N/A   Clear
9:35 AM 38.3 °F 35.9 °F 32.7 °F 80% 30.31 in 10.0 mi ENE 3.5 mph - N/A   Clear
9:55 AM 39.4 °F - 32.9 °F 78% 30.30 in 10.0 mi Calm Calm - N/A   Clear
10:15 AM 41.0 °F - 32.7 °F 72% 30.31 in 10.0 mi Calm Calm - N/A   Clear
10:35 AM 42.8 °F 41.1 °F 33.8 °F 70% 30.31 in 10.0 mi East 3.5 mph - N/A   Clear
10:55 AM 43.5 °F - 34.2 °F 70% 30.31 in 10.0 mi Calm Calm - N/A   Clear
11:15 AM 44.6 °F - 32.4 °F 62% 30.31 in 10.0 mi Calm Calm - N/A   Clear
11:35 AM 45.1 °F - 32.2 °F 60% 30.31 in 10.0 mi Calm Calm - N/A   Scattered Clouds
11:55 AM 45.7 °F - 32.7 °F 61% 30.31 in 10.0 mi Calm Calm - N/A   Scattered Clouds
12:15 PM 46.6 °F - 32.0 °F 57% 30.31 in 10.0 mi Calm Calm - N/A   Scattered Clouds
12:35 PM 47.8 °F - 32.4 °F 55% 30.32 in 10.0 mi Calm Calm - N/A   Scattered Clouds
12:55 PM 48.9 °F - 33.8 °F 56% 30.31 in 10.0 mi Calm Calm - N/A   Mostly Cloudy
1:15 PM 50.7 °F - 35.1 °F 55% 30.30 in 10.0 mi Calm Calm - N/A   Mostly Cloudy
1:35 PM 51.8 °F - 35.4 °F 54% 30.30 in 10.0 mi Calm Calm - N/A   Mostly Cloudy
1:55 PM 53.6 °F - 35.4 °F 50% 30.29 in 10.0 mi Calm Calm - N/A   Mostly Cloudy
2:15 PM 54.5 °F - 33.6 °F 45% 30.29 in 10.0 mi SSW 5.8 mph - N/A   Mostly Cloudy
3:55 PM 55.2 °F - 31.3 °F 40% 30.28 in 10.0 mi South 5.8 mph - N/A   Scattered Clouds
4:15 PM 54.5 °F - 31.3 °F 41% 30.27 in 10.0 mi South 4.6 mph - N/A   Clear
4:35 PM 54.5 °F - 30.7 °F 40% 30.28 in 10.0 mi SSW 5.8 mph - N/A   Clear
4:55 PM 55.6 °F - 29.5 °F 37% 30.28 in 10.0 mi South 5.8 mph - N/A   Clear
5:15 PM 55.9 °F - 28.6 °F 35% 30.28 in 10.0 mi SSW 8.1 mph - N/A   Mostly Cloudy
5:35 PM 54.9 °F - 30.0 °F 39% 30.28 in 10.0 mi SSW 8.1 mph - N/A   Scattered Clouds
5:55 PM 53.8 °F - 30.2 °F 41% 30.29 in 10.0 mi SW 6.9 mph - N/A   Clear
6:15 PM 51.6 °F - 31.5 °F 46% 30.30 in 10.0 mi SSW 5.8 mph - N/A   Scattered Clouds
6:35 PM 50.2 °F - 31.1 °F 48% 30.30 in 10.0 mi SW 4.6 mph - N/A   Clear
6:55 PM 49.6 °F - 31.6 °F 50% 30.30 in 10.0 mi Calm Calm - N/A   Clear
7:15 PM 46.9 °F - 34.0 °F 61% 30.31 in 10.0 mi North 5.8 mph - N/A   Clear
7:35 PM 45.5 °F 41.8 °F 33.6 °F 63% 30.31 in 10.0 mi North 6.9 mph - N/A   Clear
7:55 PM 44.6 °F 40.7 °F 33.3 °F 64% 30.32 in 10.0 mi NNE 6.9 mph - N/A   Clear
8:15 PM 44.1 °F 39.0 °F 33.3 °F 66% 30.32 in 10.0 mi NNE 9.2 mph - N/A   Clear
8:35 PM 43.3 °F 38.6 °F 33.3 °F 68% 30.32 in 10.0 mi North 8.1 mph - N/A   Clear
8:55 PM 43.5 °F 40.1 °F 32.9 °F 66% 30.32 in 10.0 mi NE 5.8 mph - N/A   Clear
9:15 PM 41.9 °F 36.9 °F 33.3 °F 71% 30.32 in 10.0 mi East 8.1 mph - N/A   Clear
9:35 PM 41.7 °F 38.0 °F 33.1 °F 71% 30.32 in 10.0 mi East 5.8 mph - N/A   Clear
9:55 PM 41.7 °F 36.7 °F 32.9 °F 71% 30.33 in 10.0 mi NE 8.1 mph - N/A   Clear
10:15 PM 42.1 °F 37.7 °F 32.9 °F 70% 30.34 in 10.0 mi ENE 6.9 mph - N/A   Clear
10:35 PM 40.3 °F 36.3 °F 32.9 °F 75% 30.34 in 10.0 mi ENE 5.8 mph - N/A   Clear
10:55 PM 39.6 °F 35.4 °F 32.0 °F 74% 30.34 in 10.0 mi East 5.8 mph - N/A   Clear
11:15 PM 38.8 °F 33.8 °F 32.0 °F 76% 30.34 in 10.0 mi East 6.9 mph - N/A   Clear
11:35 PM 36.9 °F 32.2 °F 31.6 °F 81% 30.34 in 10.0 mi ENE 5.8 mph - N/A   Clear
11:55 PM 36.0 °F 32.1 °F 31.1 °F 82% 30.34 in 10.0 mi NE 4.6 mph - N/A   Clear